Regional Weather Roundup
Issued by NWS

Home | Current Version | Previous Version | Text Only | Print | Product List | Glossary Off
Versions: 1 2 3 4 5 6 7 8 9 10 11 12 13 14 15 16 17 18 19 20 21 22 23 24 25 26 27 28 29 30 31 32 33 34 35 36 37 38 39 40 41 42 43 44 45 46 47 48 49 50

000
ASUS43 KOAX 180910
RWRNE

WEATHER ROUNDUP FOR NEBRASKA
NATIONAL WEATHER SERVICE OMAHA NE
400 AM CDT THU SEP 18 2014

NOTES: SATELLITE DATA IS BEING USED TO AUGMENT CLOUD COVER ABOVE
       12000 FEET.
       "FAIR" INDICATES FEW OR NO CLOUDS BELOW 12,000 FEET WITH NO
       SIGNIFICANT WEATHER AND/OR OBSTRUCTIONS TO VISIBILITY.

  * THESE STATIONS DO NOT REPORT WEATHER SUCH AS RAIN...SNOW OR FOG.

NEZ001>004-019>022-054>056-181000-
NEBRASKA PANHANDLE

CITY           SKY/WX    TMP DP  RH WIND       PRES   REMARKS
SCOTTSBLUFF    CLEAR     54  54 100 SE5       29.97F
ALLIANCE       CLEAR     58  57  97 S7        29.96F
CHADRON        CLEAR     50  48  93 SW6       29.92S
KIMBALL        CLEAR     52  43  72 W7        30.01S
SIDNEY         FOG       55  54  96 S7        30.00F VSB 1
$$

NEZ057>060-069>072-079>082-181000-
SOUTHWEST NEBRASKA

CITY           SKY/WX    TMP DP  RH WIND       PRES   REMARKS
NORTH PLATTE   FOG       57  57 100 SE6       29.96F VSB 1/2
IMPERIAL       CLOUDY    65  64  97 S10       29.96F FOG
LEXINGTON      FOG       58  57  97 E3        29.97S VSB 1/4
MCCOOK         FOG       63  62  97 E9        29.94F VSB 1/2
OGALLALA       MOCLDY    62  61  96 E5        29.97S
$$

NEZ005>010-023>029-035>040-094-181000-
NORTH CENTRAL NEBRASKA

CITY           SKY/WX    TMP DP  RH WIND       PRES   REMARKS
VALENTINE      PTCLDY    60  57  89 S12       29.94F
AINSWORTH      PTCLDY    58  57  98 S10       29.95F
BROKEN BOW     FOG       58  56  93 E6        29.97F VSB 1/4
O`NEILL        LGT RAIN  62  60  93 S12       29.94F
ORD            FOG       52  52 100 CALM      29.97S VSB 1/4
THEDFORD       CLOUDY    58  57  97 SE3       29.98F VSB 1/4
$$

NEZ041-046>049-061>064-073>077-083>087-181000-
SOUTH CENTRAL NEBRASKA

CITY           SKY/WX    TMP DP  RH WIND       PRES   REMARKS
GRAND ISLAND   FOG       57  55  93 SE3       29.97F VSB 1/2
AURORA         FOG       55  55 100 S3        29.97S VSB 1/4
HASTINGS       CLEAR     62  59  90 SE8       29.96S FOG
HEBRON         CLOUDY    61  59  94 E3        29.96S FOG
HOLDREGE       FOG       62  60  95 E5        29.96S VSB 1/4
KEARNEY *      CLOUDY    55  54  94 E6        29.97S VSB 3/4
YORK           CLEAR     59  59 100 S3        29.98S FOG
$$

NEZ011>018-030>034-042>045-181000-
NORTHEAST NEBRASKA

CITY           SKY/WX    TMP DP  RH WIND       PRES   REMARKS
NORFOLK        PTCLDY    60  58  92 SE5       29.97S
ALBION         PTCLDY    56  55  94 CALM      29.98S FOG
BLAIR          CLEAR     61  58  90 SE6       29.97S
COLUMBUS *     CLEAR     57  55  94 E3        29.98S
FREMONT        CLEAR     62  59  91 CALM      29.98S
TEKAMAH        CLEAR     54  52  93 SE3       29.97F
WAYNE          PTCLDY    60  57  92 S7        29.97F
$$

NEZ050>053-065>068-078-088>093-181000-
SOUTHEAST NEBRASKA

CITY           SKY/WX    TMP DP  RH WIND       PRES   REMARKS
LINCOLN        PTCLDY    64  60  87 SE7       29.98R
OMAHA EPPLEY   CLEAR     61  57  87 S5        29.98R
BEATRICE       CLEAR     59  59  98 NE7       29.97R FOG
FALLS CITY     FOG       63  63 100 SE7       29.97R VSB 1/2
NEBRASKA CITY  MOCLDY    61  59  94 SE3       29.98R FOG
PLATTSMOUTH    PTCLDY    60  57  92 SE3       29.98S FOG
$$

NEZ044-045-051>053-067-181000-
OMAHA AREA

CITY           SKY/WX    TMP DP  RH WIND       PRES   REMARKS
OMAHA EPPLEY   CLEAR     61  57  87 S5        29.98R
BLAIR          CLEAR     61  58  90 SE6       29.97S
FREMONT        CLEAR     62  59  91 CALM      29.98S
MILLARD        CLEAR     62  59  91 CALM      29.98R
OFFUTT AFB     CLEAR     58  58 100 E5        29.98R
PLATTSMOUTH    PTCLDY    60  57  92 SE3       29.98S FOG
WAHOO          FAIR      59  56  91 SE5       29.97S
$$



USA.gov is the U.S. government's official web portal to all federal, state and local government web resources and services.